Location: Unspecified
(0.0000°N, 0.0000°E)
Time: 08:05:09
(UTC+00:00)

Transit 4A - Pass Details

Date: 03 October 2023
Orbit: 864 x 979 km, 66.8° (Epoch: 05 December)

Event Time Altitude Azimuth Distance (km) Brightness Sun altitude
Rises 20:03:39 0° 358° (N) 3,570 - -33.6°
Reaches altitude 10° 20:06:28 10° 8° (N) 2,610 - -34.3°
Maximum altitude 20:11:47 32° 70° (ENE) 1,491 - -35.6°
Drops below altitude 10° 20:16:59 10° 132° (SE) 2,551 - -36.9°
Sets 20:19:42 0° 141° (SE) 3,477 - -37.6°
